Aeroporto :
LOGIN :

Iscrizione | Disclaimer

   EN    FR    IT 

 










Sommario :    VFR   VFR Marginale   IFR   IFR Intensivo   IFR Molto Intensivo
Visibilità : 
Base nubi : 
>= 8 km
>= 3000ft
5 / 8 km
1000 / 3000 ft
1500m / 5 km
500 / 1000 ft
800 / 1500m
200 / 500 ft
< 800m
< 200 ft
Simboli :   Temporali  Nebbia  Neve Forte  Precipitazioni Forti  Vento > 20 kt
SIGMETs :   Varie  Temporali  Ghiacco  Turbolenza  Onda orograficha  Ceneri Vulcaniche







- Altitudine del aeroporto : 1036 ft
- Codice IATA : ERF


EDDE - Erfurt

ULTIMO METAR :
  • 181050Z 19008KT 9999 FEW030 06/01 Q1024 NOSIG

METARs OBSOLETI :
  • 181020Z 20008KT 9999 FEW020 05/02 Q1025 NOSIG
  • 180950Z 21008KT 9999 FEW042 04/01 Q1026 NOSIG
  • 180920Z 21009KT 9999 FEW042 04/01 Q1026 NOSIG
  • 180850Z 20008KT 9999 FEW020 03/01 Q1026 NOSIG
  • 180820Z 20008KT 9999 FEW020 03/01 Q1026 NOSIG

TAF TAF EDDE
Valido dal 18 a 06 ore il 19 a 06 ore UTC


180500Z 1806/1906 20010KT 9999 BKN020
TEMPO 1806/1809 BKN014
Nessun NOTAM noto per questo aeroporto.



MetMap, La meteo Aeronautica in un colpo d'occhio ! - Copyright ORBIFLY Dicembre 2007 - Disclaimer

ORBIFLY MET'MAP TEAM :

Programmazione e sviluppo : Alexandra Zaïnal
Concezione e sviluppo : Baudouin d'Aumeries
Co-Programmazione e sviluppo : Marc-Olivier Méhu
Supporto tecnico e logistico : Manuel Goepfert
Aiuto per la traduzione : Arnaldo La Scala

Contatto : metmap@orbifly.com




FONTI E CREDITI :

   NOAA